Regional Weather Roundup
Issued by NWS Sioux Falls, SD

Home | Current Version | Previous Version | Text Only | Print | Product List | Glossary Off
Versions: 1 2 3 4 5 6 7 8 9 10 11 12 13 14 15 16 17 18 19 20 21 22 23 24 25 26 27 28 29 30 31 32 33 34 35 36 37 38 39 40 41 42 43 44 45 46 47 48 49 50

000
ASUS43 KFSD 281710
RWRFSD

WEATHER ROUNDUP FOR SE SOUTH DAKOTA/SW MINNESOTA/NW IOWA
NATIONAL WEATHER SERVICE SIOUX FALLS SD
1200 PM CDT SAT MAR 28 2015

NOTE: "FAIR" INDICATES FEW OR NO CLOUDS BELOW 12,000 FEET WITH NO
SIGNIFICANT WEATHER AND OR OBSTRUCTIONS TO VISIBILITY.


SDZ038>040-050-052>070-281800-
SOUTHEAST SOUTH DAKOTA

CITY           SKY/WX    TMP DP  RH WIND       PRES   REMARKS
CHAMBERLAIN    SUNNY     47  32  56 SE14G20   29.98F
HURON          SUNNY     43  28  55 S17G26    30.03F
MADISON        FAIR      39  28  65 S16G24    30.07F
MITCHELL       SUNNY     44  28  53 SE20      30.06F
SIOUX FALLS    MOSUNNY   43  26  51 S17G23    30.11F
WINNER         FAIR      57  32  38 S18       29.96F
YANKTON        SUNNY     43  27  52 SE18      30.10F
$$

MNZ071-072-080-081-089-090-097-098-281800-
SOUTHWEST MINNESOTA

CITY           SKY/WX    TMP DP  RH WIND       PRES   REMARKS
FAIRMONT       CLOUDY    37  18  44 S14       30.19F
JACKSON        CLOUDY    37  27  65 S10G17    30.17F
LUVERNE        MOSUNNY   41  30  65 S16G23    30.14S
MARSHALL       MOSUNNY   39  25  56 S15       30.14F
MONTEVIDEO     CLOUDY    37  28  70 S12G17    30.15F
PIPESTONE      MOSUNNY   37  28  70 S15       30.10F
REDWOOD FALLS  CLOUDY    38  25  59 S14       30.18F
TRACY          MOSUNNY   38  31  77 S13       30.15F
WINDOM         CLOUDY    36  27  69 S10G16    30.17S
WORTHINGTON    MOSUNNY   37  28  70 S14       30.16S
$$

IAZ001>003-012>014-020>022-031-032-NEZ013-014-SDZ071-281800-
NORTHWEST IOWA

CITY           SKY/WX    TMP DP  RH WIND       PRES   REMARKS
CHEROKEE       MOSUNNY   41  28  58 S15       30.16F
DENISON        MOSUNNY   43  27  52 SE12G17   30.15F
ESTHERVILLE    PTSUNNY   39  24  55 SE18      30.18F
LE MARS        SUNNY     43  25  49 SE13G22   30.14F
ORANGE CITY    SUNNY     43  21  42 SE9G17    30.14S
SHELDON        MOSUNNY   41  30  65 SE17      30.13F
SIOUX CITY     SUNNY     46  25  43 S14       30.14F
SPENCER        CLOUDY    39  28  64 S16       30.18S
STORM LAKE     MOSUNNY   39  28  65 SE13G22   30.17F
$$

ABBREVIATIONS USED IN REMARKS
   TC - TEMPERATURE IN CELSIUS
  WCI - WIND CHILL INDEX
   HX - HEAT INDEX
  VSB - VISIBILITY



USA.gov is the U.S. government's official web portal to all federal, state and local government web resources and services.